Regional Weather Roundup
Issued by NWS

Home | Current Version | Previous Version | Text Only | Print | Product List | Glossary Off
Versions: 1 2 3 4 5 6 7 8 9 10 11 12 13 14 15 16 17 18 19 20 21 22 23 24 25 26 27 28 29 30 31 32 33 34 35 36 37 38 39 40 41 42 43 44 45 46 47 48 49 50

000
ASUS45 KPSR 162310
RWRAZ

ARIZONA REGIONAL HOURLY WEATHER ROUNDUP
NATIONAL WEATHER SERVICE PHOENIX AZ
400 PM MST TUE SEP 16 2014

NOTE: FAIR INDICATES FEW OR NO CLOUDS BELOW 12,000 FEET WITH NO
SIGNIFICANT WEATHER AND/OR OBSTRUCTIONS TO VISIBILITY.

AZZ001>003-036-170000-
NORTHWEST ARIZONA

CITY           SKY/WX    TMP DP  RH WIND       PRES   REMARKS
BULLHEAD CITY  SUNNY    102  63  27 W13       29.72F HX 104
KINGMAN        MOSUNNY   85  59  41 SE33G49   29.96S HAZE
$$

AZZ004>008-015-016-018-170000-
NORTH CENTRAL ARIZONA

CITY           SKY/WX    TMP DP  RH WIND       PRES   REMARKS
GRAND CANYON   MOSUNNY   78  46  32 NE13      30.21F
PRESCOTT       CLOUDY    78  57  48 SE10      30.09F
FLAGSTAFF      CLOUDY    65  54  67 W6        30.25S
PAYSON         CLOUDY    72  61  68 VRB7G15   30.16S
PAGE           SUNNY     92  47  21 VRB6      30.01F
$$

AZZ009>014-017-170000-
NORTHEAST ARIZONA

CITY           SKY/WX    TMP DP  RH WIND       PRES   REMARKS
WINSLOW        PTSUNNY   85  49  28 SE20G26   30.08S
SAINT JOHNS    LGT RAIN  70  56  61 SE13      30.19S
WINDOW ROCK    PTSUNNY   76  49  38 S9G18     30.23
SHOW LOW       LGT RAIN  57  55  94 S7        30.25F
$$

AZZ023-170000-
GREATER PHOENIX AREA

CITY           SKY/WX    TMP DP  RH WIND       PRES   REMARKS
PHOENIX        LGT RAIN  82  69  64 NE15      29.84F
GLENDALE       PTSUNNY   82  70  65 NE9       29.86F
LUKE AFB       PTSUNNY   82  71  68 E10       29.84F
DEER VALLEY    LGT RAIN  81  65  58 E10G18    29.86F
SCOTTSDALE     LGT RAIN  81  66  60 E12       29.89F
MESA-FALCON    LGT RAIN  79  70  73 N12       29.86F
MESA-GATEWAY   PTSUNNY   82  70  65 NE8       29.88F
CHANDLER       CLOUDY    82  70  65 NE7       29.85F
$$

AZZ027-028-170000-
SOUTHWEST MARICOPA COUNTY AND PINAL COUNTY

CITY           SKY/WX    TMP DP  RH WIND       PRES   REMARKS
CASA GRANDE    CLOUDY    84  66  54 NE16      29.86F
GILA BEND      MOCLDY    86  68  54 E8        29.82F
$$

AZZ503-504-507>509-170000-
SOUTHEAST ARIZONA

CITY           SKY/WX    TMP DP  RH WIND       PRES   REMARKS
TUCSON         CLOUDY    81  67  62 NE8       29.93F
DAVIS-MONTHAN  CLOUDY    80  67  65 NE12      29.92F
RYAN FIELD       N/A     82  66  57 E12       29.92F
NOGALES        CLOUDY    75  61  61 E12       29.98F
SIERRA VISTA   CLOUDY    70  66  88 SE5       30.08F
DOUGLAS        LGT RAIN  73  65  75 E10       30.03F
SAFFORD        CLOUDY    71  67  87 CALM      30.04F
$$

AZZ020-021-025-026-031-170000-
SOUTHWEST ARIZONA

CITY           SKY/WX    TMP DP  RH WIND       PRES   REMARKS
YUMA           CLOUDY    95  61  32 E12       29.74F
$$

CAZ031-033-041-043-047-048-061-170000-
SOUTHERN CALIFORNIA

CITY           SKY/WX    TMP DP  RH WIND       PRES   REMARKS
DOWNTOWN L.A.  SUNNY     94  55  26 VRB5      29.68F
L.A. AIRPORT   MOSUNNY   83  59  44 W12       29.70F
SAN DIEGO      MOSUNNY   89  64  43 NW12      29.68F
BURBANK        SUNNY    101  54  20 S8        29.70F
ONTARIO        PTSUNNY   97  62  31 S15G26    29.75R BLWGDUST
RIVERSIDE      PTSUNNY   90  64  42 S15       29.74R
PALM SPRINGS   PTSUNNY  102  66  30 SE9       29.73F HX 106
EL CENTRO NAS  MOSUNNY  100  65  31 SE16      29.69F HX 103
IMPERIAL       SUNNY    101  66  31 SE18G25   29.69F HX 105
BLYTHE         SUNNY    101  64  29 SE8       29.73F HX 104
NEEDLES        MOSUNNY  102  62  26 MISG      29.74F HX 104
$$

NVZ020-UTZ003-170000-
SOUTHERN NEVADA-UTAH

CITY           SKY/WX    TMP DP  RH WIND       PRES   REMARKS
LAS VEGAS      MOSUNNY   98  56  24 S9        29.77F
SALT LAKE CITY MOSUNNY   91  35  13 CALM      29.98F
$$

NMZ009-TXZ055-170000-
NEW MEXICO-WEST TEXAS

CITY           SKY/WX    TMP DP  RH WIND       PRES   REMARKS
ALBUQUERQUE    CLOUDY    70  59  68 S16       30.21S
EL PASO        CLOUDY    79  62  56 NE8       30.07F
$$


........................KEY........................
SKY/WX - SKY CONDITION/WEATHER
TMP    - TEMPERATURE IN FAHRENHEIT
DP     - DEW POINT IN FAHRENHEIT
RH     - RELATIVE HUMIDITY IN PERCENT
WIND   - DIRECTION AND SPEED IN MILES PER HOUR (MPH)
VRB    - VARIABLE WIND DIRECTION
PRES   - MEAN SEA LEVEL PRESSURE IN INCHES OF MERCURY
         F - FALLING PRESSURE   R - RISING PRESSURE
         S - STEADY PRESSURE
VSB    - VISIBILITY IN MILES
HX     - HEAT INDEX IN FAHRENHEIT
WCI    - WIND CHILL INDEX IN FAHRENHEIT
TC     - TEMPERATURE IN CELSIUS WHICH IS ALSO KNOWN AS
         TEMPERATURE IN CENTIGRADE
AFB    - AIR FORCE BASE
         LUKE AFB IS LUKE AIR FORCE BASE
         DAVIS-MONTHAN IS DAVIS-MONTHAN AIR FORCE BASE
NAS    - NAVAL AIR STATION
         EL CENTRO NAS IS EL CENTRO NAVAL AIR STATION
N/A    - NOT AVAILABLE



USA.gov is the U.S. government's official web portal to all federal, state and local government web resources and services.